Tracking 30995 objects as of 7-Jul-2025
HD Live streaming from Space Station
objects crossing your sky now

TITAN 34D TRANSTAGE DEB

Track TITAN 34D TRANSTAGE DEB now!


NORAD ID: 22668
Int'l Code: 1988-077D
Perigee: 363.6 km
Apogee: 37,466.3 km
Inclination: 27.0 °
Period: 666.9 minutes
Semi major axis: 25285 km
RCS: Unknown
Launch date: September 2, 1988
Source: United States (US)
Launch site: AIR FORCE EASTERN TEST RANGE (AFETR)

Note: This is SATELLITE DEBRIS
Your satellite tracking list
Your tracking list is empty




NASA's NSSDC Master Catalog

Two Line Element Set (TLE):
1 22668U 88077D   25186.67740913  .00000967  00000-0  17925-2 0  9991
2 22668  26.9961 293.2099 7336621 209.5928  73.3186  2.15915495 47680
Source of the keplerian elements: AFSPC